• In Deutschland
  • Länderverzeichnis
  • Für 7 Tage
  • Wassertemperatur
  • Satellitenkarten
  • Wetterkarte
  • Widgets
  • user-avatar
    Anmelden

    Stündliche Wetter Ch'ŏngjin

    Heute, 26 September, Dienstag

    Zeit Temperatur Niederschläge Wind Luftdruck Luftfeuchtigkeit
    00:00 +16°C° 0 mm 3 m/S 761 mmHg 55%
    01:00 +16°C° 0 mm 2 m/S 761 mmHg 52%
    02:00 +16°C° 0 mm 2 m/S 760 mmHg 49%
    03:00 +16°C° 0 mm 2 m/S 760 mmHg 48%
    04:00 +16°C° 0 mm 2 m/S 760 mmHg 46%
    05:00 +16°C° 0 mm 2 m/S 760 mmHg 45%
    06:00 +16°C° 0 mm 2 m/S 760 mmHg 43%
    07:00 +19°C° 0 mm 2 m/S 760 mmHg 42%
    08:00 +21°C° 0 mm 2 m/S 760 mmHg 42%
    09:00 +25°C° 0 mm 2 m/S 759 mmHg 41%
    10:00 +27°C° 0 mm 2 m/S 759 mmHg 40%
    11:00 +28°C° 0 mm 3 m/S 759 mmHg 40%
    12:00 +30°C° 0 mm 4 m/S 758 mmHg 40%
    13:00 +30°C° 0 mm 4 m/S 758 mmHg 41%
    14:00 +30°C° 0 mm 4 m/S 757 mmHg 42%
    15:00 +30°C° 0 mm 4 m/S 757 mmHg 44%
    16:00 +28°C° 0 mm 4 m/S 757 mmHg 53%
    17:00 +26°C° 0 mm 4 m/S 757 mmHg 63%
    18:00 +22°C° 0 mm 3 m/S 757 mmHg 73%
    19:00 +22°C° 0 mm 3 m/S 757 mmHg 76%
    20:00 +21°C° 0 mm 3 m/S 758 mmHg 79%
    21:00 +20°C° 0 mm 3 m/S 758 mmHg 81%
    22:00 +19°C° 0,1 mm 3 m/S 758 mmHg 83%
    23:00 +19°C° 0,1 mm 4 m/S 759 mmHg 85%

    Morgen, 27 September, Mittwoch

    Zeit Temperatur Niederschläge Wind Luftdruck Luftfeuchtigkeit
    00:00 +18°C° 0,1 mm 4 m/S 759 mmHg 87%
    01:00 +17°C° 0,1 mm 5 m/S 759 mmHg 88%
    02:00 +16°C° 0,1 mm 5 m/S 759 mmHg 88%
    03:00 +16°C° 0,1 mm 6 m/S 759 mmHg 89%
    04:00 +15°C° 0,2 mm 6 m/S 759 mmHg 88%
    05:00 +15°C° 0,2 mm 6 m/S 759 mmHg 87%
    06:00 +14°C° 0,2 mm 6 m/S 759 mmHg 86%
    07:00 +15°C° 0 mm 6 m/S 760 mmHg 77%
    08:00 +15°C° 0 mm 6 m/S 760 mmHg 68%
    09:00 +16°C° 0 mm 6 m/S 760 mmHg 60%
    10:00 +17°C° 0 mm 5 m/S 759 mmHg 51%
    11:00 +19°C° 0 mm 5 m/S 759 mmHg 43%
    12:00 +20°C° 0 mm 5 m/S 759 mmHg 35%
    13:00 +21°C° 0 mm 5 m/S 758 mmHg 35%
    14:00 +21°C° 0 mm 4 m/S 758 mmHg 35%
    15:00 +21°C° 0 mm 4 m/S 757 mmHg 35%
    16:00 +19°C° 0 mm 3 m/S 757 mmHg 44%
    17:00 +17°C° 0 mm 3 m/S 757 mmHg 54%
    18:00 +15°C° 0 mm 2 m/S 757 mmHg 63%
    19:00 +14°C° 0 mm 2 m/S 757 mmHg 66%
    20:00 +13°C° 0 mm 2 m/S 758 mmHg 70%
    21:00 +12°C° 0 mm 2 m/S 758 mmHg 74%
    22:00 +10°C° 0 mm 2 m/S 758 mmHg 73%
    23:00 +10°C° 0 mm 2 m/S 758 mmHg 72%

    übermorgen, 28 September, Donnerstag

    Zeit Temperatur Niederschläge Wind Luftdruck Luftfeuchtigkeit
    00:00 +10°C° 0 mm 2 m/S 758 mmHg 72%
    01:00 +10°C° 0 mm 2 m/S 757 mmHg 71%
    02:00 +10°C° 0 mm 2 m/S 757 mmHg 69%
    03:00 +10°C° 0 mm 2 m/S 757 mmHg 68%
    04:00 +9°C° 0,1 mm 3 m/S 757 mmHg 68%
    05:00 +9°C° 0,1 mm 3 m/S 757 mmHg 67%
    06:00 +9°C° 0,1 mm 3 m/S 757 mmHg 66%
    07:00 +11°C° 0 mm 3 m/S 757 mmHg 59%
    08:00 +13°C° 0 mm 3 m/S 757 mmHg 51%
    09:00 +14°C° 0 mm 4 m/S 757 mmHg 44%
    10:00 +15°C° 0 mm 4 m/S 756 mmHg 42%
    11:00 +17°C° 0 mm 4 m/S 756 mmHg 39%
    12:00 +18°C° 0 mm 4 m/S 755 mmHg 37%
    13:00 +17°C° 0 mm 4 m/S 755 mmHg 37%
    14:00 +17°C° 0 mm 4 m/S 754 mmHg 36%
    15:00 +17°C° 0 mm 4 m/S 754 mmHg 35%
    16:00 +15°C° 0,1 mm 4 m/S 754 mmHg 39%
    17:00 +13°C° 0,1 mm 4 m/S 755 mmHg 43%
    18:00 +11°C° 0,1 mm 3 m/S 755 mmHg 47%
    19:00 +10°C° 0,2 mm 4 m/S 756 mmHg 51%
    20:00 +8°C° 0,2 mm 4 m/S 756 mmHg 55%
    21:00 +7°C° 0,2 mm 5 m/S 757 mmHg 60%
    22:00 +7°C° 0 mm 4 m/S 757 mmHg 59%
    23:00 +6°C° 0 mm 4 m/S 757 mmHg 59%

    29 September, Freitag

    Zeit Temperatur Niederschläge Wind Luftdruck Luftfeuchtigkeit
    00:00 +6°C° 0 mm 4 m/S 757 mmHg 58%
    01:00 +6°C° 0 mm 4 m/S 757 mmHg 58%
    02:00 +6°C° 0 mm 4 m/S 757 mmHg 58%
    03:00 +5°C° 0 mm 3 m/S 757 mmHg 57%
    04:00 +5°C° 0 mm 4 m/S 757 mmHg 57%
    05:00 +5°C° 0 mm 4 m/S 757 mmHg 57%
    06:00 +5°C° 0 mm 4 m/S 757 mmHg 56%
    07:00 +7°C° 0 mm 5 m/S 757 mmHg 49%
    08:00 +9°C° 0 mm 5 m/S 757 mmHg 41%
    09:00 +11°C° 0 mm 6 m/S 757 mmHg 34%
    10:00 +13°C° 0 mm 6 m/S 756 mmHg 31%
    11:00 +14°C° 0 mm 6 m/S 756 mmHg 29%
    12:00 +16°C° 0 mm 7 m/S 756 mmHg 26%
    13:00 +16°C° 0 mm 6 m/S 756 mmHg 26%
    14:00 +16°C° 0 mm 6 m/S 755 mmHg 26%
    15:00 +17°C° 0 mm 5 m/S 755 mmHg 26%
    16:00 +15°C° 0 mm 5 m/S 756 mmHg 31%
    17:00 +14°C° 0 mm 4 m/S 756 mmHg 36%
    18:00 +12°C° 0 mm 4 m/S 757 mmHg 41%
    19:00 +11°C° 0 mm 4 m/S 757 mmHg 44%
    20:00 +11°C° 0 mm 4 m/S 758 mmHg 47%
    21:00 +9°C° 0 mm 5 m/S 759 mmHg 50%
    22:00 +10°C° 0 mm 4 m/S 759 mmHg 52%
    23:00 +10°C° 0 mm 4 m/S 759 mmHg 53%

    30 September, Samstag

    Zeit Temperatur Niederschläge Wind Luftdruck Luftfeuchtigkeit
    00:00 +8°C° 0 mm 4 m/S 759 mmHg 54%
    01:00 +8°C° 0 mm 4 m/S 760 mmHg 55%
    02:00 +7°C° 0 mm 4 m/S 760 mmHg 56%
    03:00 +7°C° 0 mm 4 m/S 760 mmHg 57%
    04:00 +7°C° 0 mm 4 m/S 760 mmHg 57%
    05:00 +7°C° 0 mm 4 m/S 761 mmHg 57%
    06:00 +7°C° 0 mm 3 m/S 761 mmHg 57%
    07:00 +10°C° 0 mm 4 m/S 761 mmHg 48%
    08:00 +12°C° 0 mm 4 m/S 762 mmHg 40%
    09:00 +14°C° 0 mm 4 m/S 762 mmHg 32%
    10:00 +17°C° 0 mm 4 m/S 762 mmHg 29%
    11:00 +19°C° 0 mm 4 m/S 761 mmHg 26%
    12:00 +20°C° 0 mm 4 m/S 761 mmHg 23%
    13:00 +20°C° 0 mm 4 m/S 761 mmHg 24%
    14:00 +21°C° 0 mm 4 m/S 761 mmHg 25%
    15:00 +21°C° 0 mm 4 m/S 760 mmHg 26%
    16:00 +19°C° 0 mm 4 m/S 761 mmHg 35%
    17:00 +17°C° 0 mm 4 m/S 761 mmHg 43%
    18:00 +13°C° 0 mm 3 m/S 762 mmHg 52%
    19:00 +13°C° 0 mm 3 m/S 762 mmHg 52%
    20:00 +13°C° 0 mm 2 m/S 762 mmHg 51%
    21:00 +12°C° 0 mm 2 m/S 762 mmHg 50%
    22:00 +12°C° 0 mm 2 m/S 762 mmHg 48%
    23:00 +12°C° 0 mm 2 m/S 762 mmHg 46%

    1 Oktober, Sonntag

    Zeit Temperatur Niederschläge Wind Luftdruck Luftfeuchtigkeit
    00:00 +13°C° 0 mm 2 m/S 762 mmHg 44%
    01:00 +13°C° 0,2 mm 2 m/S 761 mmHg 50%
    02:00 +14°C° 0,2 mm 2 m/S 761 mmHg 56%
    03:00 +14°C° 0,2 mm 2 m/S 760 mmHg 61%
    04:00 +15°C° 0 mm 2 m/S 760 mmHg 65%
    05:00 +15°C° 0 mm 2 m/S 760 mmHg 69%
    06:00 +15°C° 0 mm 2 m/S 760 mmHg 72%
    07:00 +18°C° 0 mm 3 m/S 759 mmHg 67%
    08:00 +20°C° 0 mm 4 m/S 759 mmHg 61%
    09:00 +22°C° 0 mm 5 m/S 759 mmHg 56%
    10:00 +24°C° 0 mm 6 m/S 758 mmHg 49%
    11:00 +26°C° 0 mm 6 m/S 758 mmHg 43%
    12:00 +28°C° 0 mm 7 m/S 757 mmHg 36%
    13:00 +28°C° 0 mm 7 m/S 757 mmHg 39%
    14:00 +28°C° 0 mm 6 m/S 757 mmHg 41%
    15:00 +27°C° 0 mm 6 m/S 757 mmHg 44%
    16:00 +25°C° 0 mm 5 m/S 758 mmHg 53%
    17:00 +22°C° 0 mm 4 m/S 758 mmHg 62%
    18:00 +20°C° 0 mm 3 m/S 759 mmHg 71%
    19:00 +19°C° 0,3 mm 4 m/S 759 mmHg 77%
    20:00 +18°C° 0,3 mm 4 m/S 760 mmHg 83%
    21:00 +17°C° 0,3 mm 4 m/S 760 mmHg 88%
    22:00 +16°C° 1 mm 5 m/S 760 mmHg 90%
    23:00 +16°C° 1 mm 5 m/S 761 mmHg 91%
    Mehr zeigen